TimeMST,TemperatureF,Dew PointF,Humidity,Sea Level PressureIn,VisibilityMPH,Wind Direction,Wind SpeedMPH,Gust SpeedMPH,PrecipitationIn,Events,Conditions,WindDirDegrees,DateUTC
12:53 AM,19.0,9.0,65,30.50,10.0,South,6.9,-,N/A,,Clear,180,2013-01-18 07:53:00
1:53 AM,17.1,9.0,71,30.48,10.0,South,8.1,-,N/A,,Clear,190,2013-01-18 08:53:00
2:53 AM,17.1,9.0,71,30.47,10.0,South,8.1,-,N/A,,Clear,190,2013-01-18 09:53:00
3:53 AM,15.1,8.1,74,30.49,10.0,South,6.9,-,N/A,,Clear,180,2013-01-18 10:53:00
4:53 AM,17.1,8.1,68,30.47,10.0,South,8.1,-,N/A,,Clear,180,2013-01-18 11:53:00
5:53 AM,17.1,8.1,68,30.49,10.0,South,8.1,-,N/A,,Clear,180,2013-01-18 12:53:00
6:53 AM,15.1,7.0,70,30.49,10.0,SSW,10.4,-,N/A,,Clear,210,2013-01-18 13:53:00
7:53 AM,16.0,7.0,68,30.49,10.0,South,9.2,-,N/A,,Clear,190,2013-01-18 14:53:00
8:53 AM,19.0,7.0,59,30.49,10.0,South,6.9,-,N/A,,Clear,180,2013-01-18 15:53:00
9:53 AM,19.9,9.0,62,30.52,10.0,SSW,9.2,-,N/A,,Clear,200,2013-01-18 16:53:00
10:53 AM,21.9,9.0,58,30.51,10.0,SSW,9.2,-,N/A,,Clear,210,2013-01-18 17:53:00
11:53 AM,25.0,10.0,53,30.46,10.0,WSW,13.8,-,N/A,,Clear,240,2013-01-18 18:53:00
12:53 PM,28.0,12.0,51,30.41,10.0,SW,6.9,-,N/A,,Clear,230,2013-01-18 19:53:00
1:53 PM,30.0,12.9,49,30.40,10.0,SW,6.9,-,N/A,,Clear,230,2013-01-18 20:53:00
2:53 PM,32.0,14.0,48,30.38,10.0,SW,11.5,-,N/A,,Clear,220,2013-01-18 21:53:00
3:53 PM,32.0,12.9,45,30.40,10.0,SW,10.4,-,N/A,,Clear,230,2013-01-18 22:53:00
4:53 PM,28.0,12.9,53,30.41,10.0,WSW,11.5,-,N/A,,Clear,240,2013-01-18 23:53:00
5:53 PM,26.1,10.0,51,30.43,10.0,SSW,9.2,-,N/A,,Clear,210,2013-01-19 00:53:00
6:53 PM,23.0,10.0,58,30.46,10.0,SSW,10.4,-,N/A,,Clear,210,2013-01-19 01:53:00
7:53 PM,19.0,9.0,65,30.47,10.0,WSW,12.7,-,N/A,,Clear,240,2013-01-19 02:53:00
8:53 PM,19.9,9.0,62,30.46,10.0,WSW,12.7,-,N/A,,Clear,240,2013-01-19 03:53:00
9:53 PM,18.0,8.1,65,30.48,10.0,SW,10.4,-,N/A,,Clear,230,2013-01-19 04:53:00
10:53 PM,19.9,9.0,62,30.45,10.0,SW,8.1,-,N/A,,Clear,230,2013-01-19 05:53:00
11:53 PM,19.0,8.1,62,30.45,10.0,WSW,11.5,-,N/A,,Clear,240,2013-01-19 06:53:00